Location: Bratsk-Energetik
(56.3300°N, 101.7600°E)
Time: 23:28:05
(UTC+08:00)

ISS - Pass Details

Date: 11 May 2021
Orbit: 417 x 422 km, 51.6° (Epoch: 12 June)

Event Time Altitude Azimuth Distance (km) Brightness Sun altitude
Exits shadow 01:51:48 28° 149° (SSE) 829 -2.7 -15.3°
Drops below altitude 10° 01:54:21 10° 103° (ESE) 1,509 -1.0 -15.2°
Sets 01:56:37 0° 91° (E) 2,376 0.2 -15.2°
